Regional Weather Roundup
Issued by NWS

Home | Current Version | Previous Version | Graphics & Text | Print | Product List | Glossary On
Versions: 1 2 3 4 5 6 7 8 9 10 11 12 13 14 15 16 17 18 19 20 21 22 23 24 25 26 27 28 29 30 31 32 33 34 35 36 37 38 39 40 41 42 43 44 45 46 47 48 49 50
000
ASUS45 KBOI 242110
RWRID

IDAHO REGIONAL WEATHER ROUNDUP
NATIONAL WEATHER SERVICE BOISE ID
300 PM MDT SUN MAY 24 2015

NOTE: "FAIR" INDICATES FEW OR NO CLOUDS BELOW 12000 FEET
WITH NO SIGNIFICANT WEATHER AND/OR OBSTRUCTIONS TO VISIBILITY

IDZ012-014-242200-
SOUTHWEST IDAHO


CITY           SKY/WX    TMP DP  RH WIND       PRES   REMARKS
BOISE          MOSUNNY   75  45  34 NW13G21   29.86F
CALDWELL       SUNNY     77  46  33 N9G16     29.88F
MOUNTAIN HOME  PTSUNNY   76  44  32 NW13      29.85F
$$

IDZ016-017-242200-
SOUTHCENTRAL IDAHO


CITY           SKY/WX    TMP DP  RH WIND       PRES   REMARKS
BURLEY         MOSUNNY   62  49  62 E15       29.91F
JEROME         MOSUNNY   67  45  45 CALM      29.91F
TWIN FALLS     SUNNY     70  43  37 W10       29.88F
$$

IDZ019>023-242200-
SOUTHEAST IDAHO


CITY           SKY/WX    TMP DP  RH WIND       PRES   REMARKS
IDAHO FALLS    PTSUNNY   65  40  39 NE8       29.90F
POCATELLO      CLOUDY    63  46  54 NW10      29.92F
REXBURG        MOSUNNY   67  37  33 NE9       29.89F
$$

IDZ006-010-011-018-031-032-242200-
CENTRAL IDAHO MOUNTAINS


CITY           SKY/WX    TMP DP  RH WIND       PRES   REMARKS
MCCALL         PTSUNNY   64  41  42 W10G20    29.94F
HAILEY         PTSUNNY   59  50  72 SE16G32   29.95S
STANLEY          N/A     63  35  35 N6        29.97F
SALMON         CLOUDY    68  45  42 SE12G17   29.92F
CHALLIS        MOSUNNY   69  37  30 NW10G17   29.92F
$$

IDZ002-004-006-007-026-242200-
NORTHERN IDAHO


CITY           SKY/WX    TMP DP  RH WIND       PRES   REMARKS
LEWISTON       SUNNY     77  47  34 W7        29.89F
LOWELL           N/A     71  47  42 VRB3      29.90R
COEUR D`ALENE  MOSUNNY   79  36  21 W6        29.88F
MULLAN PASS    PTSUNNY   55  34  45 VRB3      30.04F
$$


USA.gov is the U.S. government's official web portal to all federal, state and local government web resources and services.